Torna al catalogo

JIAOTONG VDES B

AttivoScienzaPO
NORAD 66914·PAYLOAD·🇨🇳 China
Questo nome del satellite non è ancora stato confermato da fonti ufficiali.

Lanciato Dec 5, 2025 da Jiuquan Satellite Launch Center

Loading…

Prossimi Passaggi (prossime 24 ore)

TLE

AggiornatoSource: Space-Track

Epoca: Sep 14, 2026, 06:19 UTC

1 66914U 25284B   26257.26372238  .00000105  00000-0  68409-4 0  9999
2 66914  80.3995 196.1877 0011951   1.8838 358.2366 13.97341149 39924

Traccia JIAOTONG VDES B in tempo reale con AllMySat

Download on the App Store